Terminal Aerodrome Forecast
Issued by NWS

Home | Current Version | Previous Version | Text Only | Print | Product List | Glossary On
Versions: 1 2 3 4 5 6 7 8 9 10 11 12 13
000
FTAK31 PANC 282343
TAFADL
TAF
PADL 282343Z 2900/2924 17008KT P6SM VCSH SCT015 BKN035
      TEMPO 2900/2904 -SHRA BKN015 OVC035
     FM290600 VRB06KT P6SM SCT020 BKN050
     FM292000 09011G18KT P6SM VCSH SCT015 BKN035=

USA.gov is the U.S. government's official web portal to all federal, state and local government web resources and services.